August, Belize

12:30 AM CST on October 19, 2017 (GMT -0600)
August

Weather History for 78583 - February, 2013

Change the Weather History Date:

Saturday, February 2, 2013

  Actual Average Record
Temperature  
Mean Temperature 76 °F -  
Max Temperature 80 °F 83 °F - ()
Min Temperature 72 °F - - ()
Cooling Degree Days 11    
Growing Degree Days 26 (Base 50)    
Moisture  
Dew Point 73 °F    
Average Humidity 92    
Maximum Humidity 100    
Minimum Humidity 79    
Precipitation  
Precipitation 0.39 in 0.09 in - ()
Sea Level Pressure  
Sea Level Pressure 30.06 in    
Wind  
Wind Speed 6 mph ()    
Max Wind Speed 13 mph    
Max Gust Speed -    
Visibility 6.3 miles    
Events Rain    
T = Trace of Precipitation, MM = Missing Value Source: Averaged Metar Reports

Daily Weather History Graph

Daily Weather History Graph

Search for Another Location

Airport or City:

Trip Planner

Search our weather history database for the weather conditions in past years. The results will help you decide how hot, cold, wet, or windy it might be!

Date:

Astronomy

Feb. 02, 2013 Rise Set
Actual Time 6:25 AM CST 5:49 PM CST
Civil Twilight 6:02 AM CST 6:11 PM CST
Nautical Twilight 5:36 AM CST 6:37 PM CST
Astronomical Twilight 5:10 AM CST 7:03 PM CST
Moon 11:50 PM CST (2/2) 10:42 AM CST (2/2)
Length of Visible Light 12h 09m
Length of Day
11h 24m
Waning Gibbous, 59% of the Moon is Illuminated
Feb 2
Waning Gibbous
Feb 3
Last Quarter
Feb 10
New
Feb 17
First Quarter
Feb 25
Full

Hourly Weather History & Observations

Time (CST) Temp. Heat Index Dew Point Humidity Pressure Visibility Wind Dir Wind Speed Gust Speed Precip Events Conditions
12:00 AM 73 °F - 72 °F 95% 30.09 in 9 mi WNW 5.8 mph - - Rain Light Rain
3:00 AM 73 °F - 72 °F 96% 30.03 in 12 mi WNW 6.9 mph - -   Mostly Cloudy
5:00 AM 73.4 °F - 73.4 °F 100% 30.04 in 6.2 mi NNE 6.9 mph - N/A Rain Light Rain
6:00 AM 73 °F - 72 °F 94% 30.07 in 12 mi NNE 6.9 mph - - Rain Light Rain
6:00 AM 73.4 °F - 71.6 °F 94% 30.06 in 6.2 mi NNE 6.9 mph - N/A   Mostly Cloudy
7:00 AM 75.2 °F - 73.4 °F 94% 30.06 in 6.2 mi NNE 9.2 mph - N/A   Mostly Cloudy
8:00 AM 77.0 °F - 73.4 °F 89% 30.09 in 6.2 mi NNE 9.2 mph - N/A   Mostly Cloudy
9:00 AM 78 °F - 74 °F 84% 30.11 in 12 mi NNE 8.1 mph - -   Partly Cloudy
9:00 AM 77.0 °F - 73.4 °F 89% 30.11 in 6.2 mi NNE 8.1 mph - N/A   Mostly Cloudy
10:00 AM 78.8 °F - 73.4 °F 83% 30.11 in 6.2 mi NE 8.1 mph - N/A   Mostly Cloudy
10:45 AM 78.8 °F - 73.4 °F 83% 30.07 in 1.9 mi ENE 12.7 mph - N/A Rain Rain Showers
11:00 AM 80.6 °F 85.4 °F 73.4 °F 79% 30.08 in 6.2 mi NNE 10.4 mph - N/A Rain Light Rain Showers
12:00 PM 75 °F - 73 °F 92% 30.08 in 2 mi East 10.4 mph - -  
12:00 PM 75.2 °F - 73.4 °F 94% 30.07 in 1.9 mi East 10.4 mph - N/A Rain Rain Showers
12:15 PM 75.2 °F - 73.4 °F 94% 30.06 in 2.5 mi East 6.9 mph - N/A Rain Light Rain Showers
12:35 PM 75.2 °F - 73.4 °F 94% 30.05 in 3.1 mi ESE 5.8 mph - N/A Rain Light Rain Showers
1:00 PM 75.2 °F - 73.4 °F 94% 30.05 in 3.7 mi East 4.6 mph - N/A Rain Light Rain Showers
1:10 PM 75.2 °F - 73.4 °F 94% 30.05 in 1.9 mi East 8.1 mph - N/A Rain Rain Showers
1:20 PM 75.2 °F - 73.4 °F 94% 30.04 in 4.3 mi East 4.6 mph - N/A Rain Light Rain Showers
2:00 PM 75.2 °F - 73.4 °F 94% 30.03 in 6.2 mi Calm Calm - N/A Rain Light Rain Showers
3:00 PM 77 °F - 74 °F 88% 30.02 in 9 mi Calm Calm - - Rain Light Rain Showers
3:00 PM 77.0 °F - 73.4 °F 89% 30.02 in 6.2 mi Calm Calm - N/A   Mostly Cloudy
4:00 PM 75.2 °F - 73.4 °F 94% 30.02 in 5.6 mi East 8.1 mph - N/A Rain Light Rain Showers
5:00 PM 73.4 °F - 71.6 °F 94% 30.03 in 5.0 mi Calm Calm - N/A Rain Light Rain Showers
6:00 PM 74 °F - 72 °F 91% 30.04 in 11 mi Calm Calm - - Rain Light Rain Showers
6:00 PM 73.4 °F - 71.6 °F 94% 30.03 in 6.2 mi Calm Calm - N/A   Mostly Cloudy
9:00 PM 72 °F - 72 °F 99% 30.08 in 12 mi Calm Calm - -